COSMOS 1579 COOLANT

Satellite information

Favourite Embed

Satellite Type and Status

DEBRISIN ORBIT

Key statistics

Satellite COSMOS 1579 COOLANT at a glance.

Uptime

14921

Days in orbit

Revolutions

≈ 13.9

Per day

Orbit

LEO

Low Earth Orbit

Inclination

65.0

Latest

Satellite identification and parameters

Extended collection of information and parameters for COSMOS 1579 COOLANT.

Object identification

Identified? True

Debris? False

Object name: COSMOS 1579 COOLANT

International designator: 1984-069X

Object number (NORAD): 27573

Object ID (CCSDS): 27573

Country: COMMONWEALTH OF INDEPENDENT STATES (CIS)

Current information (Y/N): Y

RCS size: SMALL

Orbital parameters

Period: 103.377 minutes

Inclination: 65.0433 deg

SMA: 7296.418 km

Apoapsis: 949.319 km

Periapsis: 887.247 km

RAAN: 266.5106 deg

Eccentricy: 0.0042536

Argument of periapsis: 186.7413 deg

Mean anomaly: 185.217 deg

Mean motion: 13.92958543 rev/day

Mean motion (dot): 0.00000895 rev/day2

B* drag term: 0.00075207 1/REarth

Two-line elements (TLE)

Creation date: April 9, 2025, 3:13 a.m.

Reference frame: TEME

Reference center: EARTH

Epoch: April 8, 2025, 6:15 p.m. UTC

TLE line 0: 0 COSMOS 1579 COOLANT

TLE line 1: 1 27573U 84069X 25098.76080531 .00000895 00000-0 75207-3 0 9991

TLE line 2: 2 27573 65.0433 266.5106 0042536 186.7413 185.2170 13.92958543163567

Live tracking on map

Real-time ground track for satellite COSMOS 1579 COOLANT.

In-orbit conjunctions

A list of the most updated potential collisions computed for object COSMOS 1579 COOLANT.

Target Orbit TCA Probability of collision Miss distance Type
CZ-4 DEB SSO 2024-11-17 03:42:36 0.0002240897 554.0 (m) DEBRIS

Associated space launch

Active radar satellite for ocean surveillance powered by a nuclear reactor.

COSMOS 1579 COOLANT was lifted into orbit during the mission ‘Tsiklon-2 | US-A 24’, on board a Tsiklon-2 space rocket.

The launch took place on June 29, 1984, 12:21 a.m. from 90.

For more information about the launch, click the button.

Launch to space Tsiklon-2 | US-A 24
Tsiklon-2 | US-A 24

Agency: N/A

Status: Launch Successful

Launch date: June 29, 1984, 12:21 a.m. UTC

Rocket: Tsiklon-2

Launch pad: 90

Location: Baikonur Cosmodrome, Republic of Kazakhstan

...

Latest news about this satellite

There are no fresh news available about this satellite. Check back as we update our databases every day.


Newsletter sign-up

Weekly statistics, charts and insights to help you stay on top of the space industry.